Wetbulb
55.69 55.72 55.80 55.83 56.07 56.26 56.10 55.96 55.93 56.24 56.03 55.95 55.71 55.44 55.52 55.50 54.88 51.61 46.24 50.34 53.73 55.15 53.91 48.88 48.65 49.02 49.48 46.43 49.33 52.36 44.21 42.50 44.26 45.97 47.91 53.21 52.53 56.98 58.97 56.40 58.48 60.66 60.50 62.02 64.09
54.92 55.53 55.63 55.67 55.46 55.63 55.72 55.59 55.51 55.81 55.71 55.46 55.26 55.07 55.20 54.86 50.46 46.94 51.53 52.39 55.82 53.77 48.65 45.36 44.74 46.38 44.39 44.08 46.36 44.38 41.93 43.02 48.76 49.70 48.84 51.69 52.42 53.81 54.07 55.75 56.22 59.12 61.28 63.13 62.44
55.75 55.92 55.67 55.41 55.44 55.50 55.50 55.33 55.16 55.40 55.47 55.19 54.87 54.86 54.66 53.16 45.25 44.28 53.56 53.97 53.51 52.01 49.34 48.48 48.22 45.85 42.06 44.06 42.97 43.68 40.70 44.28 46.59 49.59 49.34 47.75 51.47 54.22 53.02 51.24 56.01 57.44 60.38 61.40 60.57
55.90 55.70 55.57 55.45 55.23 55.23 55.21 54.81 54.83 55.02 55.16 54.83 54.47 54.71 53.58 49.91 35.41 46.80 51.39 51.43 52.03 49.73 49.04 46.56 45.46 42.20 40.60 39.36 43.06 38.18 41.26 42.39 44.58 47.45 47.35 45.32 49.65 52.13 53.46 53.47 57.81 58.99 61.36 61.40 59.30
55.47 55.23 54.93 54.81 54.75 54.56 54.49 54.61 54.74 54.83 54.73 54.32 54.23 53.54 50.74 43.96 43.76 50.64 49.37 49.82 49.13 47.20 46.17 44.66 42.30 41.54 37.83 40.40 41.27 38.87 40.20 41.65 42.39 42.80 44.20 45.51 44.43 48.77 51.25 55.31 57.03 60.13 61.97 61.10 60.37
54.46 54.27 54.10 53.94 53.99 54.01 53.88 53.90 53.90 53.92 53.88 53.79 54.05 52.54 47.51 38.94 49.34 49.68 48.81 48.58 47.98 47.06 45.84 45.07 42.86 43.76 40.47 39.92 39.47 41.86 41.48 41.58 42.54 42.12 42.13 40.59 42.04 45.33 51.19 56.23 55.09 56.05 59.30 60.74 61.20
53.58 53.57 53.57 53.32 53.35 53.60 53.60 53.59 53.71 53.86 53.90 53.83 53.86 51.74 45.03 43.33 50.97 50.86 49.31 47.61 47.97 47.14 44.12 46.29 45.48 41.25 41.55 37.97 42.20 40.85 36.49 39.08 40.32 41.30 40.65 42.29 38.56 40.99 48.62 51.95 52.21 54.87 56.38 58.76 60.62
52.88 52.95 53.24 53.54 53.31 53.58 53.31 53.13 52.94 52.77 53.21 53.47 53.09 49.63 41.16 50.24 51.34 48.35 48.95 47.02 48.41 48.86 47.27 47.73 47.01 43.13 40.31 41.26 39.32 35.95 36.38 30.73 37.80 39.61 41.12 40.63 32.99 43.29 49.18 50.27 51.27 52.91 54.23 57.04 59.86
53.18 53.44 53.17 53.17 54.07 53.64 52.77 52.95 50.79 52.49 52.13 52.65 49.45 45.99 39.11 49.80 44.72 47.04 47.41 44.19 45.84 46.38 47.18 46.88 45.01 40.45 40.04 34.23 31.91 33.91 27.83 30.84 33.96 40.09 39.40 39.05 34.57 40.23 46.49 48.51 48.95 51.94 53.57 55.19 57.51
52.71 52.72 52.90 53.11 53.87 52.64 51.99 50.78 47.49 50.66 48.94 49.54 47.87 41.02 43.92 39.88 44.44 45.39 47.47 46.04 42.73 43.23 42.09 41.74 40.14 35.66 35.51 32.04 24.06 27.33 28.66 31.31 31.11 36.41 38.03 36.35 36.39 39.91 43.22 46.98 47.88 49.27 52.17 53.66 55.44
52.12 52.17 52.22 52.34 52.37 51.19 50.36 48.97 43.34 42.83 43.27 38.77 38.87 38.33 40.23 44.36 46.71 43.93 46.23 43.20 43.05 40.71 34.57 38.89 32.60 29.86 32.70 34.25 33.58 32.00 30.06 28.96 32.44 35.81 34.86 34.94 36.12 39.24 41.41 43.77 47.28 48.32 51.64 53.27 54.43
51.70 51.98 51.98 51.66 51.07 50.44 49.35 42.38 41.50 43.16 34.72 41.26 40.96 40.48 42.73 43.63 37.92 41.28 44.56 38.10 37.92 32.96 36.80 34.10 29.07 34.56 36.29 35.27 33.06 31.37 28.70 28.26 32.22 34.83 33.77 33.15 33.04 37.14 40.78 42.43 45.59 48.76 50.65 52.36 54.54
51.25 51.44 51.48 51.03 49.78 49.46 45.75 42.98 47.27 45.60 35.69 37.58 40.04 38.47 40.29 41.82 36.71 37.02 40.95 39.05 35.13 32.89 33.13 29.96 32.35 36.29 34.26 32.19 30.20 30.39 28.58 28.38 28.50 32.91 34.77 32.94 30.88 33.98 38.29 41.19 44.69 46.71 50.25 52.44 54.20
50.64 51.08 50.75 50.34 47.13 47.08 44.14 46.47 47.75 46.07 31.69 33.05 34.98 38.45 40.18 40.07 35.03 41.07 41.90 39.10 35.18 31.01 32.17 31.41 36.04 33.72 32.32 30.44 31.79 26.91 33.43 31.51 30.18 28.13 22.92 33.30 22.23 31.64 35.87 37.53 41.38 45.68 48.05 51.05 52.89
50.70 50.54 49.89 48.38 46.73 43.71 44.34 46.99 47.38 42.83 20.48 32.90 34.18 42.36 40.56 35.65 35.73 37.18 42.30 38.39 31.48 31.26 32.37 29.07 31.30 31.01 29.28 29.75 31.82 30.23 34.06 31.53 31.14 28.67 27.46 27.36 24.27 30.59 36.92 35.81 38.86 44.17 48.12 50.23 53.40
50.54 49.79 49.35 47.86 47.75 46.18 47.09 45.75 42.87 30.28 20.57 27.99 34.40 33.08 33.33 34.82 35.11 36.70 36.76 39.55 37.74 32.36 33.88 33.13 36.98 33.34 31.64 33.06 33.20 34.02 31.86 31.46 31.35 29.09 20.00 25.64 25.56 27.20 32.49 37.44 40.32 43.43 47.18 50.77 52.91
50.41 48.55 47.92 47.40 43.08 46.99 46.16 41.23 30.67 23.70 31.81 27.77 27.89 31.85 31.16 30.43 31.22 32.71 31.15 30.59 28.55 25.36 24.33 27.87 29.73 33.62 34.63 31.14 33.90 32.31 28.50 21.31 19.20 19.35 18.05 29.45 26.12 29.20 36.45 39.22 43.03 43.45 46.77 49.94 52.89
48.15 46.90 45.72 45.40 46.52 45.95 43.70 35.52 22.28 24.30 25.85 31.50 30.62 30.58 26.93 29.19 29.46 30.15 29.47 27.40 32.25 29.36 24.12 20.12 17.68 28.55 33.96 29.99 29.05 30.23 29.07 22.07 13.36 16.00 20.89 30.16 24.15 30.58 38.16 40.73 43.81 46.92 48.52 50.90 52.62
45.98 48.52 47.79 45.94 45.29 44.34 39.10 28.62 25.18 26.53 29.15 27.49 29.00 25.08 25.99 28.71 28.61 28.43 28.17 27.24 29.68 30.43 21.86 19.98 20.91 31.53 32.11 32.81 31.97 29.99 26.77 32.99 25.36 27.46 23.93 28.46 31.47 36.73 40.12 40.87 41.87 43.96 47.98 50.65 52.62
45.83 44.73 44.91 44.38 44.59 42.82 34.14 26.77 26.95 29.38 30.30 29.42 23.51 25.97 21.96 24.89 25.04 25.29 26.06 30.62 28.56 31.35 30.90 25.38 20.02 29.13 31.99 33.82 33.35 33.15 34.41 24.60 26.04 19.09 18.85 27.00 30.25 32.04 37.91 41.25 44.74 43.84 47.88 49.78 51.89
45.28 38.91 44.08 43.73 42.97 39.09 29.64 28.14 26.70 32.25 32.12 27.97 25.78 24.12 25.38 24.29 25.14 23.95 25.06 29.72 31.62 29.41 29.68 27.65 25.76 23.94 30.04 29.92 28.48 29.93 28.39 29.29 28.74 26.23 22.03 24.86 30.11 38.73 40.14 43.99 44.60 46.13 48.60 50.87 52.14
43.19 32.69 43.89 43.21 33.74 31.22 30.48 27.26 30.00 30.54 33.64 31.15 30.36 27.52 25.80 25.84 23.79 23.58 24.19 27.81 33.28 30.52 23.41 29.09 24.44 20.08 24.26 31.89 34.98 34.78 31.83 29.81 24.96 22.38 25.47 26.09 31.52 38.68 40.18 41.57 44.63 47.08 48.92 51.47 53.23
36.47 39.55 43.10 41.63 31.59 31.95 30.77 27.34 29.40 29.49 30.30 29.83 28.24 29.95 31.46 25.36 20.66 24.59 26.46 31.62 31.54 28.39 26.04 28.72 23.17 18.74 25.31 29.94 31.82 27.98 29.95 33.12 31.70 30.95 27.27 28.76 30.93 38.03 38.42 39.07 43.15 45.91 45.06 45.22 45.24
39.15 31.40 35.17 36.56 34.20 29.81 28.13 27.18 26.24 32.25 30.40 31.57 30.20 31.15 27.79 23.82 25.85 22.90 24.10 28.63 31.04 30.17 32.50 30.33 24.43 21.77 18.53 22.39 26.36 25.74 27.40 29.64 32.24 26.13 28.06 29.53 29.28 30.44 32.89 36.36 38.08 39.41 40.55 40.28 40.29
37.80 31.77 29.32 31.52 31.72 30.39 28.31 26.18 25.78 26.05 31.27 31.84 28.38 27.61 25.45 20.96 21.21 21.14 25.00 26.67 30.01 30.89 29.34 27.47 20.20 23.61 24.52 25.63 27.81 27.01 24.67 28.09 24.91 26.13 27.26 28.11 26.26 29.42 31.74 36.24 37.30 38.53 38.72 38.17 37.75
37.63 34.38 30.24 29.46 28.55 29.40 28.51 27.14 25.96 27.76 27.60 26.47 25.50 28.07 27.15 22.61 23.17 21.33 24.07 24.94 24.66 28.36 26.24 28.30 20.91 23.83 22.48 30.03 29.83 25.67 24.65 25.99 25.24 24.10 26.28 28.99 27.81 32.91 33.47 36.91 36.77 36.85 36.88 36.36 36.65
37.30 35.57 36.57 29.67 29.98 29.14 29.59 27.77 27.42 29.63 30.11 30.55 29.25 26.91 25.32 27.30 29.53 30.03 29.67 28.74 28.08 25.34 24.54 24.70 23.86 21.75 19.53 26.46 27.00 23.65 22.11 24.07 26.66 25.38 24.82 22.98 29.52 31.84 28.79 31.84 33.21 34.91 35.70 35.75 36.37
MSLP
1021.72 1021.52 1021.33 1021.26 1021.16 1021.18 1020.77 1020.71 1020.43 1020.17 1019.98 1019.86 1019.54 1019.24 1018.89 1018.49 1017.79 1016.54 1016.13 1016.62 1016.55 1016.29 1016.01 1014.87 1014.06 1013.73 1013.32 1012.77 1012.08 1011.74 1010.52 1007.19 1005.40 1005.03 1004.26 1003.93 1003.21 1002.90 1003.37 1003.37 1003.35 1004.09 1004.53 1005.57 1006.59
1021.62 1021.51 1021.41 1021.28 1021.16 1021.10 1020.92 1020.62 1020.43 1020.10 1020.00 1019.81 1019.48 1019.08 1018.66 1018.30 1017.52 1016.33 1016.50 1016.58 1016.51 1016.40 1015.72 1014.99 1014.28 1013.91 1013.06 1012.42 1011.72 1011.27 1009.82 1006.73 1007.11 1005.85 1005.01 1004.48 1003.90 1003.49 1003.77 1003.48 1003.42 1004.21 1005.70 1006.03 1007.24
1021.65 1021.66 1021.61 1021.40 1021.24 1021.03 1020.83 1020.64 1020.35 1020.15 1019.93 1019.72 1019.58 1018.94 1018.58 1018.10 1016.98 1015.95 1016.65 1016.49 1016.58 1016.38 1015.80 1015.35 1014.84 1014.26 1013.26 1012.49 1011.76 1011.04 1008.83 1008.80 1007.78 1006.93 1006.93 1006.70 1004.29 1004.06 1003.28 1003.30 1002.89 1003.61 1005.16 1006.30 1007.35
1021.71 1021.84 1021.86 1021.66 1021.36 1021.12 1020.79 1020.47 1020.21 1019.97 1019.79 1019.71 1019.42 1019.04 1018.50 1017.78 1016.85 1016.25 1016.79 1016.79 1016.67 1016.14 1015.61 1015.08 1014.59 1014.02 1013.25 1012.47 1011.81 1011.24 1010.23 1009.57 1008.95 1008.34 1008.41 1008.31 1007.16 1004.67 1003.79 1003.08 1003.29 1002.96 1003.57 1005.86 1007.05
1022.05 1022.12 1022.07 1021.83 1021.62 1021.31 1021.00 1020.55 1020.07 1019.98 1019.82 1019.66 1019.37 1019.08 1018.21 1017.44 1016.25 1016.35 1016.85 1016.71 1016.42 1015.88 1015.32 1015.06 1014.71 1014.06 1013.38 1012.58 1012.24 1011.56 1010.82 1010.24 1009.78 1009.25 1008.91 1009.18 1008.25 1006.75 1004.84 1003.85 1003.78 1003.72 1004.00 1005.46 1006.61
1022.33 1022.29 1022.19 1022.01 1021.85 1021.49 1020.95 1020.52 1020.08 1019.93 1019.73 1019.53 1019.26 1019.14 1018.41 1017.30 1016.34 1016.45 1016.67 1016.49 1016.04 1015.66 1015.13 1015.02 1014.70 1014.55 1013.90 1013.19 1012.50 1011.71 1011.05 1010.39 1010.13 1009.79 1009.06 1008.90 1008.55 1008.04 1005.46 1004.63 1004.38 1004.05 1004.16 1005.14 1005.74
1022.46 1022.40 1022.48 1022.30 1021.99 1021.62 1021.03 1020.38 1019.93 1019.66 1019.52 1019.39 1019.10 1018.67 1018.13 1016.69 1016.16 1016.32 1016.36 1016.13 1015.87 1015.59 1015.18 1014.95 1014.91 1014.90 1013.98 1013.18 1012.31 1011.98 1011.48 1010.83 1010.02 1009.43 1008.86 1008.63 1007.55 1006.07 1006.51 1005.58 1004.62 1004.08 1003.72 1003.95 1004.82
1022.54 1022.46 1022.48 1022.59 1022.01 1021.59 1020.87 1020.12 1019.58 1019.18 1019.05 1019.08 1019.01 1018.46 1017.13 1016.00 1016.45 1016.38 1015.86 1015.53 1015.26 1015.36 1015.29 1015.11 1015.06 1014.75 1014.26 1013.36 1012.53 1012.10 1011.33 1010.06 1009.16 1008.73 1008.14 1008.33 1005.02 1005.39 1005.67 1005.52 1004.80 1004.03 1003.48 1003.41 1004.28
1022.80 1022.80 1022.56 1022.37 1022.00 1021.32 1020.55 1019.73 1019.42 1018.93 1018.79 1018.81 1018.76 1018.42 1016.66 1016.42 1016.27 1015.77 1015.67 1015.27 1015.00 1014.80 1014.69 1014.89 1014.89 1014.22 1013.53 1013.28 1012.51 1011.16 1010.08 1008.98 1008.10 1007.59 1007.45 1006.82 1004.49 1005.30 1005.26 1004.60 1004.38 1003.87 1003.72 1003.31 1003.29
1023.14 1022.96 1022.59 1022.17 1021.76 1021.21 1020.35 1019.54 1019.24 1019.02 1018.55 1018.29 1018.47 1018.75 1017.00 1016.21 1015.95 1015.77 1015.45 1015.12 1014.94 1014.56 1014.39 1014.35 1014.25 1013.52 1012.92 1012.66 1011.44 1010.59 1009.63 1008.51 1007.79 1007.54 1006.86 1006.20 1004.86 1004.98 1004.22 1003.75 1003.60 1003.81 1003.37 1002.85 1002.48
1023.32 1023.00 1022.62 1022.07 1021.71 1021.22 1020.12 1018.98 1019.40 1018.70 1018.61 1018.79 1018.48 1018.39 1017.26 1016.61 1016.13 1015.30 1014.64 1014.53 1014.55 1014.48 1013.59 1013.10 1013.18 1012.06 1011.38 1011.43 1011.09 1010.51 1009.99 1009.03 1008.23 1007.81 1007.22 1006.04 1005.19 1004.45 1003.91 1003.34 1002.86 1002.70 1002.55 1001.94 1002.08
1023.29 1023.10 1022.50 1022.03 1021.74 1021.43 1020.54 1020.56 1021.71 1022.09 1020.28 1018.75 1018.39 1018.12 1017.56 1017.43 1016.15 1014.63 1014.40 1014.64 1013.85 1013.46 1012.97 1012.71 1011.72 1011.41 1011.18 1010.84 1010.52 1010.02 1009.50 1008.79 1008.28 1008.01 1007.74 1006.65 1005.65 1005.07 1004.08 1002.67 1002.26 1002.23 1001.69 1001.19 1000.89
1023.18 1022.90 1022.47 1021.97 1021.70 1021.36 1021.46 1022.09 1022.37 1022.28 1021.02 1018.40 1018.08 1017.83 1017.43 1017.51 1015.83 1014.61 1014.70 1014.06 1013.66 1013.13 1012.71 1011.90 1010.58 1010.84 1010.63 1010.34 1010.30 1009.60 1008.67 1008.36 1008.26 1007.86 1007.33 1006.66 1005.21 1004.67 1003.75 1003.11 1002.18 1001.37 1001.39 1001.11 1000.43
1023.20 1022.84 1022.48 1022.03 1021.95 1021.68 1021.58 1022.38 1022.26 1022.17 1020.71 1018.48 1017.64 1017.53 1017.18 1016.72 1015.29 1014.93 1014.48 1014.73 1013.55 1012.85 1012.70 1011.53 1010.32 1010.26 1009.96 1009.59 1009.75 1008.59 1008.44 1008.53 1008.29 1008.28 1007.27 1006.57 1004.39 1003.29 1002.36 1001.65 1001.39 1000.68 1000.12 1000.32 1000.17
1023.27 1022.82 1022.59 1022.23 1021.99 1021.76 1022.71 1022.44 1022.22 1022.03 1020.42 1018.53 1017.49 1017.18 1016.88 1016.84 1016.37 1014.70 1014.86 1014.24 1013.41 1012.94 1013.28 1010.84 1010.63 1010.32 1009.92 1009.06 1009.62 1007.58 1008.69 1008.43 1007.76 1007.66 1007.52 1006.22 1004.98 1002.02 1000.56 999.18 999.18 999.07 998.63 999.27 999.50
1023.25 1022.89 1022.55 1022.19 1022.06 1022.76 1022.69 1022.37 1022.15 1021.58 1019.77 1018.68 1018.01 1017.52 1016.95 1016.50 1015.87 1015.17 1014.78 1014.37 1013.74 1013.13 1012.40 1011.25 1010.44 1010.03 1008.74 1008.33 1008.38 1008.45 1008.43 1008.12 1007.52 1007.35 1006.17 1004.74 1004.03 1000.68 999.31 997.61 996.99 997.50 997.67 998.04 998.59
1023.30 1022.98 1022.58 1022.81 1022.88 1022.85 1022.55 1021.93 1021.71 1021.09 1020.39 1019.45 1018.83 1018.37 1017.80 1016.71 1016.06 1015.57 1014.85 1014.04 1013.67 1013.08 1011.95 1010.60 1009.12 1008.57 1008.88 1008.45 1007.35 1007.83 1007.53 1007.10 1006.69 1005.78 1003.99 1002.53 1001.72 999.80 997.61 996.67 995.32 995.69 996.40 997.03 997.70
1023.31 1023.10 1023.18 1023.27 1023.24 1022.93 1022.17 1021.54 1021.68 1021.66 1021.24 1020.68 1019.94 1019.28 1018.68 1017.94 1016.79 1016.25 1015.27 1014.49 1014.23 1014.34 1013.34 1011.32 1007.68 1009.13 1009.09 1009.25 1008.42 1007.42 1006.56 1005.14 1004.45 1003.47 1002.13 1001.02 998.89 997.36 996.84 995.96 995.33 994.53 995.27 995.97 996.53
1023.27 1022.84 1022.84 1023.17 1023.25 1022.89 1022.19 1022.23 1022.43 1022.43 1022.32 1021.68 1020.69 1020.05 1019.40 1018.84 1018.41 1017.06 1015.65 1015.05 1014.99 1014.91 1015.10 1013.16 1010.11 1008.66 1008.11 1007.89 1008.11 1006.44 1005.86 1004.30 1004.42 1002.44 1001.09 999.07 998.02 996.57 995.52 994.94 994.87 994.79 994.50 994.94 995.60
1023.05 1022.77 1022.95 1023.49 1023.17 1022.68 1022.65 1023.10 1023.20 1023.20 1023.11 1022.86 1022.22 1021.54 1020.74 1019.47 1018.90 1018.27 1016.37 1015.33 1015.32 1015.64 1015.89 1014.67 1011.35 1008.49 1007.06 1007.39 1007.32 1007.01 1006.25 1005.33 1004.54 1002.40 1000.34 998.11 996.97 995.05 994.45 994.34 994.23 994.42 994.41 994.43 995.00
1023.09 1022.95 1023.44 1023.41 1023.21 1022.81 1023.50 1023.85 1023.75 1023.39 1023.56 1023.54 1022.90 1022.47 1021.47 1020.66 1020.02 1018.93 1017.25 1015.90 1015.56 1015.71 1016.14 1014.97 1013.74 1009.46 1008.54 1007.74 1007.58 1007.23 1006.03 1004.85 1003.99 1003.04 1001.27 998.65 997.64 997.60 996.33 995.60 995.13 995.10 995.35 995.52 995.76
1023.32 1023.59 1023.62 1023.30 1023.58 1024.23 1024.38 1024.65 1024.60 1023.73 1023.48 1023.29 1023.16 1022.99 1022.35 1021.80 1020.58 1019.56 1017.92 1016.98 1016.05 1016.39 1016.05 1015.53 1014.34 1011.61 1009.37 1008.31 1007.41 1006.87 1005.85 1005.16 1003.98 1003.39 1002.74 1001.62 999.80 999.59 999.07 998.72 997.85 997.06 997.05 996.61 996.99
1023.84 1023.75 1023.56 1023.58 1024.33 1024.63 1024.83 1024.76 1024.51 1023.88 1023.48 1023.26 1022.88 1022.69 1022.53 1022.48 1021.86 1020.11 1018.66 1017.00 1017.13 1017.07 1016.59 1016.15 1014.32 1011.99 1009.02 1008.81 1008.15 1008.58 1007.14 1005.29 1004.12 1003.91 1002.93 1001.60 1000.97 1001.13 1000.79 1000.07 999.54 998.70 999.17 999.24 999.55
1024.08 1024.42 1024.37 1024.59 1025.43 1025.21 1025.20 1024.71 1024.25 1023.89 1023.69 1023.52 1022.95 1022.68 1022.75 1022.56 1022.38 1020.81 1019.61 1017.72 1017.41 1016.86 1016.58 1017.02 1015.02 1014.00 1012.54 1011.21 1010.50 1009.42 1007.60 1005.63 1004.22 1004.75 1003.64 1003.08 1002.87 1003.06 1002.59 1001.82 1001.36 1001.16 1001.31 1001.36 1001.85
1024.71 1025.67 1026.28 1025.90 1025.71 1025.39 1025.67 1025.00 1024.35 1023.96 1023.68 1023.37 1022.85 1023.27 1023.34 1022.76 1022.24 1021.31 1019.84 1018.68 1017.64 1016.87 1016.87 1016.38 1015.00 1013.82 1012.25 1011.20 1010.26 1009.91 1008.99 1007.70 1006.88 1006.21 1005.01 1005.17 1005.22 1005.29 1004.71 1003.74 1003.29 1003.24 1003.23 1003.13 1003.96
1024.91 1025.57 1026.58 1026.23 1026.22 1025.50 1025.25 1024.66 1024.26 1024.01 1024.02 1023.34 1023.33 1023.10 1023.21 1022.97 1022.76 1021.55 1020.94 1020.21 1018.78 1017.32 1017.37 1016.31 1015.12 1013.72 1011.51 1010.34 1009.91 1010.05 1010.24 1009.58 1008.96 1008.28 1007.59 1006.95 1006.88 1007.28 1006.39 1005.46 1005.00 1005.11 1005.08 1005.20 1006.10
1025.19 1025.53 1025.47 1025.96 1025.85 1025.47 1024.72 1024.39 1024.15 1024.13 1023.57 1023.51 1023.26 1022.96 1022.50 1022.25 1022.08 1021.41 1021.13 1020.74 1020.17 1019.39 1017.90 1016.73 1015.63 1014.00 1011.71 1010.45 1009.83 1010.48 1011.92 1011.53 1011.45 1011.04 1010.20 1009.28 1009.36 1008.97 1008.13 1007.43 1007.37 1007.39 1007.20 1007.58 1008.14
Wind_Speed
8 8 7 7 6 7 7 9 10 9 10 12 13 14 15 18 21 14 6 4 7 11 15 14 12 9 9 9 11 12 10 20 31 28 22 21 22 18 17 19 10 8 8 5 19
6 8 6 6 6 7 8 8 9 9 10 10 11 12 13 17 17 12 6 1 9 12 14 12 12 11 8 8 8 15 15 28 22 22 23 22 26 23 16 17 20 11 2 11 19
6 5 5 6 6 7 8 9 9 9 10 10 12 11 11 13 11 3 6 4 6 13 10 11 10 9 10 9 12 16 24 21 23 21 21 19 24 26 21 21 21 17 14 16 17
6 6 6 6 7 7 8 9 9 9 10 11 12 10 11 8 7 3 5 5 10 11 9 9 8 10 10 10 9 19 22 21 21 20 13 16 19 20 27 20 18 18 18 18 19
7 6 6 7 8 9 10 10 10 10 10 10 11 7 7 6 10 5 3 6 13 8 9 9 10 11 13 10 11 17 19 19 19 22 20 16 20 20 23 13 14 8 15 18 17
7 7 8 10 11 11 11 12 12 12 11 9 9 3 8 12 3 2 6 13 9 8 10 8 7 11 12 16 17 16 19 17 17 19 22 20 21 19 15 18 17 9 14 16 18
8 10 11 11 11 13 14 14 14 13 11 9 7 7 11 17 5 8 12 9 9 10 12 11 10 11 11 16 13 12 17 18 19 17 21 20 24 32 22 19 19 21 16 17 16
9 9 9 11 12 15 16 16 16 13 11 8 3 5 8 8 8 12 10 12 11 10 11 12 11 15 18 15 19 19 21 20 17 21 22 21 33 27 23 21 26 17 12 14 16
8 8 8 11 14 15 18 16 7 5 2 2 5 4 10 3 7 8 12 11 14 12 12 9 11 15 15 15 16 17 18 22 18 15 17 20 31 27 27 15 20 22 19 18 18
7 9 11 12 14 13 18 11 1 4 1 3 1 6 6 9 15 14 10 9 10 10 11 12 8 11 10 12 16 19 18 20 17 15 18 23 26 22 24 26 22 13 22 19 16
9 11 13 12 11 12 13 4 4 5 7 8 16 14 19 13 14 7 14 10 11 9 13 12 10 15 19 19 23 21 24 25 21 19 19 20 21 19 24 26 19 14 21 23 19
9 12 14 14 6 10 6 5 4 6 11 10 11 10 13 8 11 16 15 7 8 16 15 14 19 23 22 21 22 25 25 26 25 23 21 23 24 22 23 21 26 22 22 18 21
9 12 14 16 3 3 6 7 5 1 6 5 5 8 6 6 19 23 5 10 14 17 17 20 22 21 22 19 22 27 27 25 24 20 20 20 23 23 25 25 25 23 24 21 21
9 12 13 17 5 5 3 9 4 2 4 4 2 2 5 20 6 13 6 8 9 15 19 17 17 17 22 25 24 27 25 24 23 18 16 16 18 23 24 27 27 28 25 23 21
9 11 10 9 7 5 8 7 1 4 6 9 3 3 15 11 16 0 11 10 19 19 11 21 25 23 22 28 24 27 18 22 22 19 18 22 15 16 21 25 29 28 24 26 23
8 9 10 3 3 5 8 4 3 4 4 6 5 18 20 9 13 9 11 11 15 15 18 22 21 22 27 26 22 16 17 11 19 14 15 23 19 16 19 20 26 28 27 24 23
8 5 5 3 5 10 6 4 4 3 7 8 11 15 20 14 14 12 21 13 9 11 18 26 16 15 4 9 4 9 12 7 8 10 13 18 18 19 15 26 23 27 26 25 23
5 3 3 3 6 7 4 2 3 1 4 9 13 18 8 13 11 17 14 13 9 14 19 13 25 9 2 6 9 10 11 5 7 11 13 17 11 15 28 27 19 15 25 25 23
3 1 1 5 6 4 3 2 3 3 6 12 17 5 4 8 11 13 17 8 8 12 13 14 13 18 18 19 8 9 11 15 5 9 10 8 13 20 22 22 24 19 17 22 22
4 3 1 9 5 4 3 2 2 2 6 4 6 3 10 13 13 16 11 5 10 13 16 7 20 11 19 2 4 6 7 8 4 6 6 8 11 5 20 16 16 21 18 17 18
2 3 3 7 3 2 2 2 4 3 3 3 5 8 9 13 15 13 8 15 5 21 21 16 6 17 16 6 2 4 4 8 8 9 6 1 4 10 12 2 7 12 13 13 15
1 2 3 4 2 1 2 2 3 5 3 6 5 8 9 14 11 10 9 14 16 19 19 9 7 9 19 11 3 3 4 16 6 6 7 8 2 11 11 10 7 7 5 10 12
1 2 3 3 2 2 2 3 3 4 6 4 5 3 5 7 10 10 11 8 20 25 8 13 5 10 5 1 8 4 10 10 16 8 7 9 4 15 14 11 10 4 4 9 11
1 2 3 4 1 1 4 1 5 3 8 7 11 10 7 9 6 12 17 12 23 18 13 15 6 8 9 14 13 10 19 22 5 5 8 3 8 17 17 12 10 10 8 12 13
3 1 1 2 1 2 2 2 4 6 3 8 5 3 8 6 14 5 13 20 15 3 16 5 6 11 18 18 12 13 24 21 18 14 9 10 9 14 14 9 10 10 11 16 16
1 2 2 0 3 4 1 2 5 7 4 7 6 12 11 9 11 21 20 17 10 10 19 9 6 15 6 5 10 8 26 20 22 21 12 12 10 13 13 11 15 14 15 18 17
1 2 0 2 1 2 0 3 5 9 5 8 14 15 11 8 14 18 18 17 18 18 11 8 8 10 7 14 14 3 24 15 11 19 13 10 9 11 18 18 17 16 19 19 18
Wind_Direction
338 333 331 331 345 330 336 334 339 340 332 331 330 330 328 325 316 316 308 51 342 342 310 320 315 331 281 258 248 264 242 241 240 241 248 257 250 234 241 254 226 186 257 68 139
316 327 350 358 343 332 329 337 335 332 325 321 320 323 333 325 313 303 70 274 332 342 324 331 325 322 290 257 237 221 243 245 260 263 257 247 248 240 235 230 242 202 188 138 143
350 7 352 345 336 329 330 334 330 323 318 318 320 329 336 316 301 101 38 355 324 317 310 305 301 294 279 261 244 245 247 263 271 281 321 318 267 257 231 244 232 209 187 160 162
30 9 346 339 338 328 329 325 319 314 316 318 322 335 323 318 315 71 22 345 323 313 294 301 288 286 281 270 259 259 263 273 282 286 301 304 309 266 265 228 262 241 198 168 181
34 14 353 350 340 333 327 318 315 311 311 315 321 351 319 301 268 97 329 315 307 290 285 298 293 290 271 284 282 271 274 273 278 280 279 286 289 287 279 282 240 243 141 177 190
35 18 2 351 339 330 320 313 309 304 303 309 317 305 311 284 42 324 298 309 283 272 276 279 291 309 291 272 272 281 292 283 279 278 276 271 276 280 267 259 266 261 190 195 195
30 16 357 339 331 322 317 312 305 296 292 297 308 291 289 263 294 294 292 280 287 273 284 284 291 278 288 289 271 277 280 276 265 259 264 265 264 247 256 272 287 245 238 206 206
26 9 343 329 328 322 319 318 314 303 278 280 300 307 269 309 318 286 279 286 274 261 271 284 279 272 261 261 267 268 266 267 261 246 249 233 249 258 231 234 252 247 269 210 199
19 353 335 328 326 320 319 322 323 353 324 270 243 279 277 342 276 304 303 292 307 288 269 272 268 251 260 249 265 247 255 263 269 243 240 240 249 243 257 246 231 250 237 234 218
5 339 329 330 327 329 320 318 328 210 144 142 75 259 230 324 319 310 290 305 286 287 263 228 233 250 243 242 254 270 260 259 255 258 256 244 255 250 247 228 241 234 243 243 225
350 335 334 334 334 340 331 304 316 200 355 294 302 284 283 319 293 280 305 307 254 248 264 245 247 252 258 251 250 262 268 275 277 276 277 268 271 261 238 242 254 220 242 224 223
345 336 337 336 329 345 342 32 34 344 311 285 277 269 277 301 289 300 322 265 259 277 288 273 256 261 270 265 258 259 260 260 266 262 264 268 266 262 270 254 231 232 238 246 224
342 337 340 341 292 304 26 37 338 248 278 292 272 289 329 300 308 305 318 291 279 279 284 280 273 278 275 259 261 253 246 254 259 271 269 271 263 253 244 251 256 252 233 243 245
342 344 345 333 263 347 8 359 340 190 288 338 350 60 319 321 265 307 308 288 282 281 296 284 278 275 275 258 243 251 241 245 254 263 264 255 259 252 234 232 234 240 214 228 240
343 350 348 4 320 326 350 342 57 233 320 351 327 355 329 325 310 44 332 283 278 291 284 267 289 292 276 264 260 265 251 251 249 248 251 254 265 269 245 224 220 226 217 215 227
345 352 332 274 286 19 334 314 236 246 309 332 310 333 333 325 314 293 313 301 268 282 274 271 285 275 266 276 267 247 227 251 242 233 239 245 241 255 246 247 213 214 216 220 216
344 9 355 328 335 331 318 255 285 327 3 322 330 327 324 321 315 326 328 321 328 316 320 308 286 310 286 300 270 189 173 213 205 208 233 227 228 237 245 230 229 207 207 219 217
352 332 55 47 331 319 285 280 305 82 298 321 315 319 306 349 328 332 321 329 344 342 314 338 321 351 103 282 305 203 191 211 218 227 238 222 241 228 222 251 272 218 204 208 211
297 324 250 9 335 305 303 351 337 352 339 325 321 328 321 315 324 320 318 312 322 347 348 308 286 308 290 281 220 160 206 223 334 264 269 210 228 245 218 223 231 235 228 202 207
323 306 66 341 330 273 38 316 291 326 324 330 309 25 314 333 329 333 308 308 337 350 349 282 295 326 323 306 182 283 308 219 227 269 220 223 204 210 193 209 223 202 213 214 200
306 357 67 340 277 34 22 308 294 282 301 257 300 291 279 321 325 321 283 300 354 339 333 301 255 293 319 7 304 197 210 221 248 275 317 355 129 358 12 89 180 194 212 214 226
350 339 35 325 23 55 304 311 303 295 271 279 277 275 281 324 305 307 273 298 327 341 327 355 291 292 299 299 335 320 271 215 232 226 215 303 63 18 6 340 309 276 223 223 217
45 289 73 322 27 342 294 277 269 299 308 285 277 258 289 307 311 296 300 292 324 334 328 2 305 299 336 160 58 345 287 248 255 298 255 280 80 14 5 355 348 242 73 76 82
344 343 354 55 359 324 313 341 318 287 284 274 282 306 324 298 253 290 295 304 330 314 327 325 263 265 292 300 305 323 348 15 191 219 273 41 4 354 353 357 17 44 64 75 70
15 69 52 339 93 314 314 310 322 340 251 305 291 254 318 294 303 247 297 315 327 42 346 320 281 294 295 281 273 31 7 15 22 350 21 34 42 353 343 3 49 60 69 76 71
170 167 167 138 266 303 204 277 319 331 291 298 260 307 309 277 278 295 303 315 309 318 328 332 282 314 288 278 336 46 10 4 26 10 1 5 43 3 351 43 59 60 67 72 73
129 119 154 128 223 270 284 308 303 328 275 266 303 311 305 316 308 286 284 281 278 294 308 309 315 330 294 330 319 38 11 355 27 25 352 10 9 9 33 47 45 59 67 69 73